This demonstration page uses our WeatherBlox Daily Observations layout. Learn more.

Left ArrowRight Arrow

Hourly Observations for July 26, 2018

Temp ( °F °C ) Dew Point ( °F °C ) Humidity (%) Winds ( mph kmh ) Pressure ( in mb ) Visibility ( mi km ) Precip ( " mm )
12:53 am 00:53 Clear 57 13.9 47 8.3 69 69 ENE 7 11 30.25 1025 10 16 0.00 0.00
1:53 am 01:53 Clear 57 13.9 47 8.3 69 69 ENE 8 13 30.24 1024 10 16 0.00 0.00
2:53 am 02:53 Clear 55 12.8 46 7.8 72 72 ENE 8 13 30.24 1024 10 16 0.00 0.00
3:53 am 03:53 Clear 56 13.3 46 7.8 70 70 ENE 8 13 30.23 1024 10 16 0.00 0.00
4:53 am 04:53 Clear 54 12.2 46 7.8 75 75 E 12 19 30.23 1024 10 16 0.00 0.00
5:53 am 05:53 Sunny 52 11.1 46 7.8 80 80 E 8 13 30.24 1024 10 16 0.00 0.00
6:53 am 06:53 Sunny 53 11.7 47 8.3 80 80 E 8 13 30.24 1024 10 16 0.00 0.00
7:53 am 07:53 Sunny 57 13.9 48 8.9 72 72 E 8 13 30.24 1024 10 16 0.00 0.00
8:53 am 08:53 Sunny 63 17.2 49 9.4 60 60 ENE 9 15 30.24 1024 10 16 0.00 0.00
9:53 am 09:53 Sunny 69 20.6 49 9.4 49 49 ENE 8 13 30.23 1024 10 16 0.00 0.00
10:53 am 10:53 Sunny 73 22.8 48 8.9 41 41 ENE 12 19 30.21 1023 10 16 0.00 0.00
11:53 am 11:53 Partly Cloudy 75 23.9 47 8.3 37 37 ENE 9 15 30.20 1023 10 16 0.00 0.00
12:53 pm 12:53 Mostly Sunny 73 22.8 45 7.2 37 37 NE 9 15 30.19 1023 10 16 0.00 0.00
1:53 pm 13:53 Cloudy 75 23.9 46 7.8 36 36 NE 5 7 30.19 1023 10 16 0.00 0.03
2:53 pm 14:53 Cloudy 75 23.9 45 7.2 34 34 NE 9 15 30.19 1023 10 16 0.00 0.00
3:53 pm 15:53 Cloudy 76 24.4 45 7.2 33 33 VRB 7 11 30.16 1022 10 16 0.00 0.00
4:53 pm 16:53 Cloudy 76 24.4 45 7.2 33 33 NNE 13 20 30.16 1021 10 16 0.00 0.00
5:53 pm 17:53 Mostly Sunny 76 24.4 46 7.8 35 35 ENE 9 15 30.15 1021 10 16 0.00 0.00
6:53 pm 18:53 Mostly Sunny 76 24.4 46 7.8 35 35 E 8 13 30.14 1021 10 16 0.00 0.00
7:53 pm 19:53 Mostly Cloudy 74 23.3 49 9.4 41 41 E 5 7 30.13 1020 10 16 0.00 0.00
8:53 pm 20:53 Partly Cloudy 70 21.1 52 11.1 53 53 SE 6 9 30.12 1020 10 16 0.00 0.00
9:53 pm 21:53 Mostly Cloudy 67 19.4 52 11.1 59 59 ESE 6 9 30.14 1021 10 16 0.00 0.00
10:53 pm 22:53 Mostly Cloudy 65 18.3 49 9.4 56 56 SSW 3 6 30.15 1021 10 16 0.00 0.00
11:53 pm 23:53 Clear 63 17.2 49 9.4 60 60 Calm 30.14 1021 10 16 0.00 0.00

Powered by AerisWeather